This demonstration page uses our WeatherBlox Daily Observations layout. Learn more.

Left ArrowRight Arrow

34.74481, -87.66753

Hourly Observations for April 29, 2021

Temp ( °F °C ) Dew Point ( °F °C ) Humidity (%) Winds ( mph kmh ) Pressure ( in mb ) Visibility ( mi km ) Precip ( " mm )
12:53 am 00:53 Clear 73 22.8 62 16.7 69 69 S 8 13 29.91 1013 10 16 0.00 0.00
1:53 am 01:53 Clear 73 22.8 60 15.6 64 64 S 7 11 29.88 1012 10 16 0.00 0.00
2:53 am 02:53 Clear 72 22.2 60 15.6 66 66 SSW 8 13 29.87 1012 10 16 0.00 0.00
3:53 am 03:53 Clear 71 21.7 60 15.6 68 68 SSW 7 11 29.88 1012 10 16 0.00 0.00
4:53 am 04:53 Clear 71 21.7 60 15.6 68 68 S 7 11 29.87 1011 10 16 0.00 0.00
5:53 am 05:53 Clear 71 21.7 60 15.6 68 68 S 6 9 29.86 1011 10 16 0.00 0.00
6:53 am 06:53 Sunny 71 21.7 61 16.1 71 71 WSW 12 19 29.89 1012 10 16 0.00 0.00
7:53 am 07:53 Partly Cloudy 71 21.7 62 16.7 73 73 SW 12 19 29.91 1013 10 16 0.00 0.00
8:43 am 08:43 Mostly Cloudy with Nearby Thunderstorms 72 22.2 62 16.7 71 71 W 16 26 29.99 1016 10 16 0.00 0.00
8:53 am 08:53 Cloudy with Nearby Thunderstorms 71 21.7 62 16.7 73 73 W 15 24 30.01 1016 8 13 0.01 0.25
9:07 am 09:07 Cloudy with Heavy Rain 69 20.6 63 17.2 81 81 WSW 10 17 30.02 1016 2 3 0.08 2.03
9:20 am 09:20 Cloudy with Rain 69 20.6 64 17.8 84 84 SW 7 11 30.01 1016 3 5 0.11 2.79
9:53 am 09:53 Cloudy with Light Rain 69 20.6 64 17.8 84 84 SW 8 13 29.98 1015 6 10 0.17 4.32
10:09 am 10:09 Cloudy 69 20.6 64 17.8 84 84 SSW 7 11 30.00 1016 10 16 0.00 0.00
10:41 am 10:41 Cloudy 71 21.7 65 18.3 81 81 SSW 6 9 29.98 1015 10 16 0.00 0.00
10:53 am 10:53 Cloudy 71 21.7 65 18.3 81 81 S 5 7 29.98 1015 10 16 0.00 0.00
11:11 am 11:11 Cloudy 72 22.2 65 18.3 79 79 SSW 7 11 29.97 1015 10 16 0.00 0.00
11:30 am 11:30 Cloudy 72 22.2 65 18.3 79 79 SW 7 11 29.96 1015 10 16 0.00 0.00
11:53 am 11:53 Cloudy 73 22.8 66 18.9 79 79 SW 9 15 29.95 1014 10 16 0.00 0.00
12:53 pm 12:53 Cloudy 77 25 67 19.4 71 71 WSW 12 19 29.94 1014 10 16 0.00 0.00
1:53 pm 13:53 Partly Cloudy 79 26.1 67 19.4 67 67 WSW 14 22 29.94 1014 10 16 0.00 0.00
2:53 pm 14:53 Mostly Cloudy 77 25 65 18.3 66 66 W 15 24 29.93 1014 10 16 0.00 0.00
3:53 pm 15:53 Mostly Sunny 77 25 66 18.9 69 69 WSW 8 13 29.93 1013 10 16 0.00 0.00
4:53 pm 16:53 Mostly Sunny 77 25 66 18.9 69 69 WSW 8 13 29.92 1013 10 16 0.00 0.00
5:53 pm 17:53 Partly Cloudy 76 24.4 65 18.3 69 69 WSW 9 15 29.94 1014 10 16 0.00 0.00
6:53 pm 18:53 Mostly Cloudy 75 23.9 63 17.2 66 66 W 14 22 29.95 1014 10 16 0.00 0.00
7:53 pm 19:53 Mostly Cloudy 73 22.8 63 17.2 71 71 W 8 13 29.97 1015 10 16 0.00 0.00
8:53 pm 20:53 Mostly Clear 71 21.7 63 17.2 76 76 NW 6 9 29.99 1016 10 16 0.00 0.00
9:37 pm 21:37 Cloudy 71 21.7 64 17.8 79 79 WNW 6 9 30.01 1016 10 16 0.00 0.00
9:53 pm 21:53 Mostly Cloudy 71 21.7 64 17.8 79 79 NNW 8 13 30.03 1017 10 16 0.00 0.00
10:05 pm 22:05 Mostly Cloudy 71 21.7 63 17.2 76 76 NW 7 11 30.04 1017 10 16 0.00 0.00
10:53 pm 22:53 Cloudy 71 21.7 62 16.7 73 73 NW 5 7 30.05 1018 10 16 0.00 0.00
11:53 pm 23:53 Cloudy 69 20.6 62 16.7 78 78 NNW 5 7 30.06 1018 10 16 0.00 0.00

Powered by AerisWeather